TimeCST,TemperatureF,Dew PointF,Humidity,Sea Level PressureIn,VisibilityMPH,Wind Direction,Wind SpeedMPH,Gust SpeedMPH,PrecipitationIn,Events,Conditions,WindDirDegrees,DateUTC
12:15 AM,46.4,44.6,93,30.12,5.0,SSW,9.2,-,N/A,,Clear,210,2012-11-22 06:15:00
12:35 AM,46.4,44.6,93,30.12,5.0,SSW,9.2,-,N/A,,Clear,200,2012-11-22 06:35:00
12:55 AM,46.4,44.6,93,30.12,5.0,SSW,10.4,16.1,N/A,,Clear,210,2012-11-22 06:55:00
1:15 AM,46.4,44.6,93,30.12,5.0,SSW,9.2,-,N/A,,Clear,210,2012-11-22 07:15:00
1:35 AM,46.4,42.8,87,30.12,5.0,SSW,8.1,-,N/A,,Clear,200,2012-11-22 07:35:00
1:55 AM,46.4,42.8,87,30.11,5.0,SSW,10.4,-,N/A,,Clear,210,2012-11-22 07:55:00
2:15 AM,46.4,44.6,93,30.11,5.0,SSW,10.4,16.1,N/A,,Clear,200,2012-11-22 08:15:00
2:35 AM,48.2,44.6,87,30.11,5.0,SSW,11.5,19.6,N/A,,Clear,200,2012-11-22 08:35:00
2:55 AM,48.2,44.6,87,30.10,5.0,SSW,11.5,18.4,N/A,,Clear,200,2012-11-22 08:55:00
3:15 AM,46.4,44.6,93,30.10,5.0,SSW,11.5,17.3,N/A,,Clear,200,2012-11-22 09:15:00
3:35 AM,46.4,42.8,87,30.10,5.0,SSW,11.5,-,N/A,,Clear,210,2012-11-22 09:35:00
3:55 AM,46.4,44.6,93,30.09,5.0,SSW,11.5,18.4,N/A,,Clear,210,2012-11-22 09:55:00
4:15 AM,46.4,42.8,87,30.09,5.0,SSW,10.4,18.4,N/A,,Clear,210,2012-11-22 10:15:00
4:35 AM,46.4,42.8,87,30.09,5.0,SSW,8.1,17.3,N/A,,Clear,200,2012-11-22 10:35:00
4:55 AM,46.4,42.8,87,30.09,5.0,SSW,11.5,17.3,N/A,,Clear,200,2012-11-22 10:55:00
5:15 AM,46.4,42.8,87,30.08,7.0,SSW,11.5,17.3,N/A,,Clear,200,2012-11-22 11:15:00
5:35 AM,46.4,42.8,87,30.08,7.0,SSW,11.5,19.6,N/A,,Clear,200,2012-11-22 11:35:00
5:55 AM,46.4,42.8,87,30.07,7.0,South,12.7,20.7,N/A,,Clear,190,2012-11-22 11:55:00
6:15 AM,46.4,42.8,87,30.07,7.0,South,10.4,20.7,N/A,,Clear,190,2012-11-22 12:15:00
6:35 AM,46.4,42.8,87,30.07,5.0,South,11.5,19.6,N/A,,Clear,190,2012-11-22 12:35:00
6:55 AM,46.4,42.8,87,30.06,5.0,South,11.5,19.6,N/A,,Clear,190,2012-11-22 12:55:00
7:15 AM,46.4,42.8,87,30.06,5.0,South,12.7,17.3,N/A,,Clear,190,2012-11-22 13:15:00
7:35 AM,46.4,42.8,87,30.06,5.0,South,13.8,19.6,N/A,,Clear,190,2012-11-22 13:35:00
7:55 AM,46.4,42.8,87,30.06,5.0,South,16.1,21.9,N/A,,Clear,190,2012-11-22 13:55:00
8:15 AM,46.4,42.8,87,30.05,5.0,South,10.4,20.7,N/A,,Clear,190,2012-11-22 14:15:00
8:35 AM,50.0,44.6,82,30.05,5.0,SSW,15.0,20.7,N/A,,Haze,200,2012-11-22 14:35:00
8:55 AM,50.0,44.6,82,30.05,7.0,South,15.0,-,N/A,,Clear,190,2012-11-22 14:55:00
9:15 AM,51.8,44.6,76,30.04,7.0,South,17.3,27.6,N/A,,Clear,190,2012-11-22 15:15:00
9:35 AM,51.8,44.6,76,30.03,7.0,South,15.0,20.7,N/A,,Clear,180,2012-11-22 15:35:00
9:55 AM,51.8,44.6,76,30.03,7.0,South,10.4,20.7,N/A,,Clear,190,2012-11-22 15:55:00
10:15 AM,53.6,44.6,72,30.02,7.0,South,16.1,23.0,N/A,,Clear,190,2012-11-22 16:15:00
10:35 AM,55.4,44.6,67,30.01,7.0,South,18.4,24.2,N/A,,Clear,180,2012-11-22 16:35:00
10:55 AM,55.4,44.6,67,30.00,7.0,SSW,13.8,25.3,N/A,,Clear,200,2012-11-22 16:55:00
11:15 AM,55.4,44.6,67,29.99,7.0,South,16.1,23.0,N/A,,Clear,190,2012-11-22 17:15:00
11:35 AM,55.4,44.6,67,29.98,10.0,South,9.2,23.0,N/A,,Clear,180,2012-11-22 17:35:00
11:55 AM,57.2,44.6,63,29.97,10.0,South,11.5,20.7,N/A,,Clear,180,2012-11-22 17:55:00
12:15 PM,59.0,44.6,59,29.95,10.0,South,16.1,24.2,N/A,,Clear,190,2012-11-22 18:15:00
12:35 PM,59.0,42.8,55,29.94,10.0,South,11.5,23.0,N/A,,Clear,190,2012-11-22 18:35:00
12:55 PM,59.0,42.8,55,29.93,10.0,South,11.5,24.2,N/A,,Clear,190,2012-11-22 18:55:00
1:15 PM,59.0,42.8,55,29.92,10.0,South,16.1,24.2,N/A,,Clear,190,2012-11-22 19:15:00
1:35 PM,60.8,42.8,52,29.91,10.0,South,13.8,23.0,N/A,,Scattered Clouds,180,2012-11-22 19:35:00
1:55 PM,59.0,42.8,55,29.90,10.0,South,12.7,21.9,N/A,,Mostly Cloudy,180,2012-11-22 19:55:00
2:15 PM,59.0,41.0,51,29.89,10.0,South,19.6,25.3,N/A,,Scattered Clouds,190,2012-11-22 20:15:00
2:35 PM,59.0,41.0,51,29.88,10.0,South,13.8,24.2,N/A,,Clear,180,2012-11-22 20:35:00
2:55 PM,59.0,42.8,55,29.88,10.0,South,15.0,21.9,N/A,,Clear,180,2012-11-22 20:55:00
3:15 PM,59.0,42.8,55,29.87,10.0,South,13.8,21.9,N/A,,Clear,170,2012-11-22 21:15:00
3:35 PM,59.0,41.0,51,29.86,10.0,South,15.0,23.0,N/A,,Clear,180,2012-11-22 21:35:00
3:55 PM,59.0,41.0,51,29.86,10.0,South,10.4,16.1,N/A,,Clear,170,2012-11-22 21:55:00
4:15 PM,57.2,41.0,55,29.85,10.0,South,13.8,20.7,N/A,,Clear,190,2012-11-22 22:15:00
4:35 PM,57.2,41.0,55,29.87,10.0,SSW,13.8,23.0,N/A,,Mostly Cloudy,200,2012-11-22 22:35:00
4:55 PM,57.2,41.0,55,29.88,10.0,SSW,12.7,19.6,N/A,,Overcast,200,2012-11-22 22:55:00
5:15 PM,57.2,41.0,55,29.88,10.0,SSW,15.0,20.7,N/A,,Overcast,200,2012-11-22 23:15:00
5:35 PM,55.4,42.8,63,29.88,10.0,South,9.2,20.7,N/A,,Overcast,190,2012-11-22 23:35:00
5:55 PM,55.4,42.8,63,29.87,10.0,South,11.5,16.1,N/A,,Overcast,190,2012-11-22 23:55:00
6:35 PM,55.4,42.8,63,29.87,10.0,South,13.8,19.6,N/A,,Scattered Clouds,190,2012-11-23 00:35:00
6:55 PM,55.4,42.8,63,29.86,10.0,SSW,11.5,18.4,N/A,,Mostly Cloudy,210,2012-11-23 00:55:00
7:15 PM,55.4,42.8,63,29.85,10.0,SSW,16.1,23.0,N/A,,Mostly Cloudy,200,2012-11-23 01:15:00
7:55 PM,53.6,42.8,67,29.84,10.0,SSW,16.1,23.0,N/A,,Overcast,200,2012-11-23 01:55:00
8:15 PM,55.4,42.8,63,29.84,10.0,SSW,16.1,23.0,N/A,,Mostly Cloudy,210,2012-11-23 02:15:00
8:35 PM,55.4,44.6,67,29.84,10.0,SSW,15.0,27.6,N/A,,Mostly Cloudy,200,2012-11-23 02:35:00
8:55 PM,55.4,44.6,67,29.83,10.0,SSW,17.3,27.6,N/A,,Overcast,200,2012-11-23 02:55:00
9:15 PM,53.6,44.6,72,29.82,10.0,SSW,19.6,28.8,N/A,,Overcast,210,2012-11-23 03:15:00
9:35 PM,53.6,46.4,77,29.82,10.0,SSW,18.4,27.6,N/A,,Overcast,210,2012-11-23 03:35:00
9:55 PM,53.6,46.4,77,29.81,10.0,SSW,15.0,27.6,N/A,,Overcast,210,2012-11-23 03:55:00
10:15 PM,53.6,46.4,77,29.81,10.0,SSW,17.3,25.3,N/A,,Overcast,210,2012-11-23 04:15:00
10:35 PM,55.4,46.4,72,29.80,10.0,SW,16.1,26.5,N/A,,Overcast,220,2012-11-23 04:35:00
10:55 PM,53.6,46.4,77,29.80,10.0,SSW,13.8,25.3,N/A,,Mostly Cloudy,210,2012-11-23 04:55:00
11:15 PM,53.6,46.4,77,29.80,10.0,SW,16.1,-,N/A,,Scattered Clouds,220,2012-11-23 05:15:00
11:35 PM,53.6,46.4,77,29.80,10.0,SW,15.0,23.0,N/A,,Mostly Cloudy,230,2012-11-23 05:35:00
11:55 PM,53.6,46.4,77,29.82,10.0,West,20.7,33.4,N/A,,Overcast,280,2012-11-23 05:55:00